Theta_e
283 284 285 286 287 287 287 287 286 285 286 287 288 294 293 293 292 292 292 294 295 295 295 295 295 295 295 295 296 296 296 297 298 298 301 302 303 304
283 283 283 284 285 286 286 287 288 287 286 290 290 293 293 292 291 291 291 291 292 293 293 293 293 292 292 293 293 294 295 296 297 298 300 301 303 303
282 282 283 284 283 285 286 287 287 287 286 287 290 290 290 290 289 289 289 288 289 291 292 291 291 291 291 291 292 293 293 295 296 297 299 300 300 302
281 281 282 283 282 284 285 285 286 287 287 285 286 285 286 287 288 287 288 288 286 290 291 290 290 290 289 290 291 291 292 293 295 296 297 298 299 299
280 280 280 281 280 283 285 285 285 287 287 285 285 285 285 285 285 285 285 285 287 289 290 289 290 289 289 289 290 290 292 293 295 295 295 296 296 297
280 279 279 280 280 283 285 285 285 284 285 285 285 284 284 284 285 284 283 285 284 285 286 288 287 287 288 288 289 290 291 293 295 295 294 294 294 294
279 279 278 280 282 285 285 285 284 284 284 285 284 284 283 283 283 284 283 281 282 282 282 283 282 282 283 285 287 290 292 294 295 294 293 292 292 292
275 276 277 279 280 284 287 288 286 284 282 283 283 283 283 284 285 283 282 281 278 282 282 280 281 279 280 283 289 291 293 294 294 293 292 291 291 292
274 275 276 278 279 283 286 287 286 287 287 284 282 282 282 283 284 283 283 282 280 282 283 279 281 279 279 280 290 292 292 294 293 292 291 290 290 290
274 274 275 276 278 283 284 284 285 284 284 284 283 284 284 284 284 284 282 281 281 282 283 279 279 278 278 278 288 290 292 293 292 291 291 290 290 289
273 273 274 276 281 285 284 283 284 284 285 286 286 285 285 286 286 284 281 280 279 280 281 280 279 278 278 280 281 287 289 291 291 290 290 290 289 288
271 272 275 277 282 284 283 283 282 282 282 281 281 282 282 281 282 280 281 281 279 278 281 279 278 277 276 280 281 282 282 287 288 289 289 289 289 286
270 269 271 279 282 283 284 283 283 283 282 281 280 280 280 279 279 279 278 279 279 278 280 281 277 276 275 279 280 281 282 282 283 284 287 288 289 288
268 270 273 279 280 280 281 283 283 283 281 280 279 279 279 279 278 278 277 277 277 277 277 280 277 275 278 277 278 280 282 282 282 283 284 286 287 287
270 272 275 275 276 275 279 279 277 277 280 279 278 278 278 280 280 279 278 278 278 277 277 276 278 276 277 278 278 277 281 282 282 283 284 283 283 283
266 265 270 271 272 272 271 273 274 274 276 278 279 279 280 280 279 280 278 278 277 277 278 278 276 276 278 278 279 278 279 279 280 282 283 284 284 284
259 261 262 263 263 264 266 267 270 272 272 274 279 279 279 279 279 279 279 278 276 276 276 278 278 280 280 279 279 278 280 281 281 280 283 283 284 284
256 258 259 260 260 261 262 264 266 268 270 273 276 278 278 278 278 279 279 277 275 274 275 276 277 278 278 280 281 279 280 280 281 282 280 282 282 285
256 256 256 257 258 259 261 262 263 266 269 271 272 274 277 278 277 277 278 277 275 273 271 274 274 275 275 273 277 283 279 279 281 282 282 281 282 283
251 251 251 254 255 257 259 260 262 264 266 268 269 270 272 275 276 276 277 277 275 272 274 274 272 272 275 273 273 277 283 280 281 280 281 281 281 286
250 251 252 253 253 253 255 259 260 262 264 265 266 267 269 272 275 276 275 275 275 273 273 272 271 272 271 272 275 275 278 284 282 280 281 282 280 282
249 249 251 253 251 251 253 256 258 260 262 263 263 265 266 269 271 274 274 273 273 272 272 272 272 272 274 276 270 276 278 283 285 285 285 282 276 280
249 248 248 248 252 251 252 254 256 256 260 260 261 262 264 266 269 272 275 273 272 272 272 273 273 274 273 275 277 280 280 281 281 283 284 286 286 286
Wind_Speed
12 12 10 9 9 8 7 5 4 3 2 3 3 2 4 3 4 4 4 7 8 7 7 6 5 5 6 5 6 6 8 10 12 12 13 13 15 18
10 14 12 11 10 9 8 7 5 4 2 2 1 2 4 4 5 5 5 8 9 8 7 5 7 6 5 4 6 7 9 11 12 12 11 14 16 17
14 12 14 13 10 10 9 8 5 4 3 1 2 4 2 6 5 6 5 4 4 8 8 7 7 5 4 5 7 9 11 11 11 10 13 14 16 18
14 14 14 12 14 13 9 10 7 6 3 2 2 2 4 3 4 6 4 4 3 4 7 4 4 5 5 7 9 10 10 10 10 12 14 15 16 18
13 13 14 14 14 13 11 9 8 5 3 2 1 1 2 2 3 3 3 3 3 4 5 3 5 5 6 7 10 10 10 9 11 13 13 14 15 18
12 11 13 14 15 16 12 11 10 8 5 2 1 2 2 2 1 2 3 2 2 2 5 5 7 9 9 10 11 9 10 11 12 12 13 15 16 17
11 10 12 16 25 23 11 11 11 8 6 4 2 1 1 1 0 2 3 2 3 2 2 3 3 3 5 7 6 9 10 12 13 13 13 15 16 17
12 12 13 15 20 26 23 20 14 11 9 6 4 4 4 2 2 2 4 2 2 2 2 3 3 3 4 5 10 10 11 13 13 15 15 15 16 17
10 11 12 12 16 16 18 16 11 15 14 7 7 5 4 4 1 2 2 2 2 1 4 4 2 2 4 5 11 10 11 13 15 16 15 16 16 17
9 10 12 14 16 18 13 11 8 7 8 6 7 7 6 4 3 3 3 4 2 2 1 3 2 2 3 4 11 11 12 16 16 18 19 17 18 16
8 9 11 13 22 24 12 11 8 7 8 13 15 16 16 17 10 2 3 1 1 1 3 3 0 1 2 4 4 10 12 15 18 20 21 21 17 16
7 8 15 17 21 22 11 10 8 8 7 7 8 10 11 11 14 6 3 2 2 2 2 4 1 1 3 2 4 4 4 13 17 20 21 20 20 8
7 8 8 21 19 19 20 11 11 8 8 5 4 4 4 6 6 6 6 3 2 3 3 2 1 1 2 2 2 5 5 5 6 10 16 19 20 19
7 7 8 17 19 18 14 20 19 10 4 5 4 5 4 3 3 4 6 6 6 5 3 2 2 2 2 2 1 2 5 8 7 8 8 12 19 20
8 11 14 16 17 13 20 21 14 9 7 6 6 5 3 4 3 3 4 4 8 8 6 5 3 2 2 2 2 2 2 7 6 8 7 8 7 7
12 8 11 13 15 13 10 12 8 8 8 7 6 5 4 5 6 4 3 2 5 7 9 8 5 1 3 4 2 3 4 4 4 4 5 5 7 7
5 5 8 8 10 10 9 10 9 9 10 9 6 6 6 5 5 4 5 4 5 4 7 7 7 10 10 4 5 5 5 5 3 3 6 7 7 7
5 6 7 7 8 8 8 9 8 10 10 9 9 7 6 6 5 4 4 4 4 4 3 3 3 2 3 9 16 4 5 3 3 4 3 6 8 7
6 6 5 6 6 7 7 6 7 8 9 8 9 9 8 6 5 5 4 4 4 4 3 3 3 2 4 4 3 14 3 3 2 3 4 4 4 5
3 3 3 5 5 6 6 6 7 8 8 8 9 9 9 7 5 5 5 4 4 3 4 5 5 4 2 3 3 2 12 2 2 2 3 1 1 4
3 3 2 3 3 4 4 5 6 7 7 7 8 8 9 7 6 5 5 7 5 3 5 4 3 2 1 0 4 3 3 8 5 3 3 3 3 4
2 2 3 3 3 3 4 4 5 6 7 7 7 7 8 7 7 6 5 3 4 3 1 1 2 1 3 3 3 3 2 4 9 11 9 3 2 3
2 2 3 2 3 3 3 4 3 4 5 6 6 6 7 7 8 7 5 4 3 3 3 2 3 3 3 3 4 6 8 5 4 5 6 13 11 9
Wind_Direction
354 351 346 343 341 335 327 323 320 330 333 10 2 67 78 86 79 54 71 102 98 91 83 71 62 55 48 25 34 17 4 5 3 356 353 351 357 356
356 355 352 349 343 338 337 333 332 315 290 2 99 42 113 106 104 87 67 69 90 92 96 90 76 60 48 40 33 19 15 11 3 358 358 3 0 358
356 351 353 350 344 341 341 342 333 340 320 336 53 14 87 125 115 103 92 72 56 77 76 76 69 66 62 37 24 23 20 12 7 11 6 3 6 4
354 353 352 351 347 346 345 341 335 334 306 315 30 46 58 75 116 111 102 86 62 82 99 107 108 66 54 35 26 26 18 14 15 10 9 12 7 3
354 352 343 348 346 341 343 341 346 323 325 312 22 57 86 68 84 74 80 82 79 54 85 65 50 69 58 39 35 21 13 11 16 15 16 9 6 8
353 352 341 346 343 339 346 349 346 342 342 341 18 49 61 66 74 107 103 68 91 52 72 69 58 50 38 37 29 12 15 10 19 23 22 15 12 10
346 354 344 341 348 349 350 353 350 356 359 353 24 31 59 79 202 105 98 97 58 72 62 34 38 22 10 11 11 17 21 17 24 30 25 24 16 17
351 350 343 344 345 344 349 355 3 8 7 8 11 32 18 32 40 105 120 138 97 354 87 51 32 13 344 350 28 22 26 30 34 38 34 27 23 17
355 350 346 343 341 341 346 345 359 11 24 16 30 19 5 360 6 78 74 60 79 79 120 76 356 32 355 345 35 30 39 41 46 43 40 34 29 16
351 353 347 339 337 342 345 345 2 4 19 20 29 23 17 354 17 57 81 94 86 82 89 83 354 13 351 5 23 39 45 51 50 46 43 35 28 15
350 351 343 336 336 350 352 348 358 13 5 29 48 45 39 40 34 98 111 126 155 41 31 105 335 33 25 18 358 34 44 47 53 48 43 39 31 16
351 353 347 338 348 0 1 352 15 12 11 8 26 33 33 30 33 25 332 151 131 116 15 86 109 129 45 25 8 10 4 41 49 48 42 38 36 26
351 348 332 337 0 6 11 11 21 12 1 349 8 20 31 39 28 20 22 25 71 70 14 86 129 93 93 98 360 17 12 17 40 39 38 38 40 40
349 334 321 359 6 12 19 19 15 7 355 353 6 12 12 15 23 41 35 43 43 64 10 22 105 96 89 72 63 318 40 42 45 46 42 32 32 33
355 360 5 9 13 15 16 21 15 4 1 11 3 3 354 350 46 43 42 42 57 45 30 23 71 85 60 108 131 346 50 41 31 56 42 36 21 10
4 358 18 19 26 22 10 9 9 5 357 359 360 341 345 13 31 17 27 19 48 49 44 48 60 59 94 59 73 57 25 72 330 40 45 41 34 22
356 9 22 9 10 8 4 4 0 7 3 347 358 358 6 14 29 12 34 39 61 53 57 49 48 71 65 46 70 44 57 69 2 8 61 49 38 16
24 29 23 13 14 1 360 352 359 360 354 349 356 2 10 14 20 22 32 42 53 35 40 10 349 36 43 55 43 45 59 55 21 21 9 62 46 17
47 26 25 8 1 359 359 357 348 342 338 358 2 358 353 11 16 16 21 29 44 41 24 3 357 63 73 68 331 22 45 11 14 50 42 34 61 22
22 20 0 354 351 356 352 352 348 350 358 0 4 358 353 350 11 11 15 34 41 19 47 38 36 23 81 152 124 317 15 41 38 30 32 360 255 356
352 357 337 340 336 340 340 343 346 352 349 354 4 360 348 356 359 16 22 26 34 32 48 36 360 9 334 252 67 15 353 30 63 49 12 51 43 1
330 343 336 330 330 342 341 340 352 358 355 359 1 356 347 348 356 357 22 24 36 33 27 11 2 32 39 60 90 83 32 44 52 73 53 88 143 62
307 313 328 329 326 327 339 354 358 346 348 348 356 350 347 344 349 350 5 17 20 35 6 36 23 32 52 64 89 94 82 65 60 64 53 47 55 63